Location: Newark
(13.8117°N, 3.6025°W)
Time: 12:07:57
(UTC+00:00)

Explorer 11/Cluster Stage 4 - Pass Details

Date: 28 August 2019
Orbit: 467 x 1260 km, 28.8° (Epoch: 20 September)

Event Time Altitude Azimuth Distance (km) Brightness Sun altitude
Rises 08:35:20 0° 276° (W) 3,574 9.5 36.0°
Reaches altitude 10° 08:38:05 10° 286° (WNW) 2,753 9.0 36.7°
Maximum altitude 08:44:09 32° 348° (NNW) 1,802 8.6 38.1°
Drops below altitude 10° 08:51:05 10° 49° (NE) 3,161 10.4 39.8°
Sets 08:54:30 0° 58° (ENE) 4,176 11.0 40.7°
